This demonstration page uses our WeatherBlox Daily Observations layout. Learn more.

Left ArrowRight Arrow

Hourly Observations for February 21, 2022

Temp ( °F °C ) Dew Point ( °F °C ) Humidity (%) Winds ( mph kmh ) Pressure ( in mb ) Visibility ( mi km ) Precip ( " mm )
12:53 am 00:53 Cloudy 0 -17.8 -7 -21.7 72 72 ENE 18 30 30.35 1028 10 16 0.00 0.00
1:53 am 01:53 Cloudy with Light Snow 0 -17.8 -7 -21.7 72 72 ENE 15 24 30.37 1029 5 8 0.00 0.00
2:53 am 02:53 Cloudy with Haze -1 -18.3 -7 -21.7 75 75 ENE 15 24 30.38 1029 5 8 0.00 0.00
3:53 am 03:53 Cloudy with Haze -1 -18.3 -6 -21.1 79 79 ENE 13 20 30.38 1029 6 10 0.00 0.00
4:53 am 04:53 Cloudy with Light Snow -1 -18.3 -7 -21.7 75 75 E 15 24 30.41 1030 5 8 0.00 0.00
5:40 am 05:40 Cloudy with Light Snow -1 -18.3 -7 -21.7 75 75 ENE 13 20 30.55 1035 3 4 0.00 0.00
5:53 am 05:53 Cloudy with Light Snow -2 -18.9 -8 -22.2 75 75 ENE 15 24 30.44 1031 3 5 0.00 0.00
6:17 am 06:17 Cloudy with Light Snow -2 -18.9 -8 -22.2 75 75 ENE 16 26 30.57 1035 2 3 0.01 0.25
6:27 am 06:27 Cloudy with Light Snow -3 -19.4 -8 -22.2 79 79 ENE 15 24 30.58 1035 2 3 0.01 0.25
6:40 am 06:40 Cloudy with Light Snow -3 -19.4 -8 -22.2 79 79 ENE 18 30 30.59 1036 2 3 0.01 0.25
6:53 am 06:53 Cloudy with Haze -3 -19.4 -8 -22.2 79 79 ENE 16 26 30.46 1031 2 3 0.01 0.25
7:09 am 07:09 Cloudy with Haze -3 -19.4 -9 -22.8 75 75 ENE 16 26 30.60 1036 3 5 0.00 0.00
7:18 am 07:18 Cloudy with Haze -3 -19.4 -9 -22.8 75 75 ENE 18 30 30.60 1036 3 4 0.00 0.00
7:53 am 07:53 Cloudy with Haze -4 -20 -9 -22.8 79 79 ENE 12 19 30.50 1033 2 3 0.01 0.25
8:08 am 08:08 Cloudy with Haze -4 -20 -9 -22.8 79 79 ENE 15 24 30.63 1037 3 5 0.00 0.00
8:29 am 08:29 Cloudy with Haze -3 -19.4 -9 -22.8 75 75 ENE 12 19 30.65 1038 4 6 0.00 0.00
8:53 am 08:53 Cloudy -3 -19.4 -9 -22.8 75 75 ENE 13 20 30.53 1034 8 13 0.00 0.00
9:34 am 09:34 Cloudy with Light Snow -2 -18.9 -8 -22.2 75 75 ENE 16 26 30.66 1038 2 3 0.00 0.00
9:45 am 09:45 Cloudy with Light Snow -2 -18.9 -9 -22.8 72 72 E 15 24 30.66 1038 2 3 0.00 0.00
9:53 am 09:53 Cloudy with Light Snow -2 -18.9 -9 -22.8 72 72 E 16 26 30.54 1034 2 3 0.00 0.00
10:17 am 10:17 Cloudy with Light Snow -1 -18.3 -8 -22.2 72 72 E 15 24 30.66 1038 2 3 0.00 0.00
10:30 am 10:30 Cloudy with Haze -2 -19 -9 -23 71 71 E 17 28 30.67 1039 3 5 0.00 0.00
10:45 am 10:45 Cloudy with Haze -1 -18.3 -8 -22.2 72 72 E 16 26 30.66 1038 2 3 0.01 0.25
10:53 am 10:53 Cloudy with Haze -1 -18.3 -9 -22.8 68 68 E 15 24 30.55 1034 3 4 0.01 0.25
11:01 am 11:01 Cloudy with Haze -1 -18.3 -8 -22.2 72 72 E 15 24 30.66 1038 4 6 0.00 0.00
11:34 am 11:34 Cloudy with Haze 0 -17.8 -8 -22.2 69 69 E 13 20 30.67 1039 3 5 0.00 0.00
11:53 am 11:53 Cloudy with Haze 0 -17.8 -7 -21.7 72 72 E 14 22 30.56 1035 2 3 0.00 0.00
12:04 pm 12:04 Cloudy with Haze 0 -17.8 -7 -21.7 72 72 ENE 14 22 30.67 1039 2 2 0.00 0.00
12:33 pm 12:33 Cloudy with Haze 1 -17.2 -6 -21.1 72 72 ENE 13 20 30.66 1038 2 3 0.00 0.00
12:53 pm 12:53 Cloudy with Haze 1 -17.2 -6 -21.1 72 72 ENE 13 20 30.55 1035 3 4 0.00 0.00
1:04 pm 13:04 Mostly Cloudy with Haze 1 -17.2 -7 -21.7 68 68 ENE 15 24 30.66 1038 3 5 0.00 0.00
1:27 pm 13:27 Cloudy with Haze 1 -17.2 -7 -21.7 68 68 E 14 22 30.66 1038 6 10 0.00 0.00
1:53 pm 13:53 Cloudy 1 -17.2 -8 -22.2 65 65 ENE 15 24 30.56 1035 7 11 0.00 0.00
2:53 pm 14:53 Cloudy with Haze 2 -16.7 -7 -21.7 65 65 ENE 15 24 30.57 1035 5 8 0.00 0.00
3:33 pm 15:33 Cloudy 2 -16.7 -7 -21.7 65 65 ENE 14 22 30.68 1039 9 14 0.00 0.00
3:53 pm 15:53 Cloudy 1 -17.2 -7 -21.7 68 68 E 14 22 30.59 1036 9 14 0.00 0.00
4:24 pm 16:24 Cloudy with Haze 1 -17.2 -6 -21.1 72 72 ENE 15 24 30.71 1040 3 5 0.00 0.00
4:30 pm 16:30 Cloudy with Light Snow 1 -17.2 -6 -21.1 72 72 ENE 16 26 30.71 1040 2 3 0.00 0.00
4:37 pm 16:37 Cloudy with Haze 1 -17.2 -7 -21.7 68 68 ENE 15 24 30.71 1040 3 5 0.00 0.00
4:50 pm 16:50 Cloudy 0 -18 -8 -22 71 71 ENE 15 24 30.73 1041 10 16 0.00 0.00
4:53 pm 16:53 Cloudy 0 -17.8 -8 -22.2 69 69 ENE 13 20 30.62 1037 10 16 0.00 0.00
5:53 pm 17:53 Cloudy -2 -18.9 -9 -22.8 72 72 E 10 17 30.64 1038 10 16 0.00 0.00
6:53 pm 18:53 Cloudy -4 -20 -10 -23.3 75 75 ENE 10 17 30.66 1038 10 16 0.00 0.00
7:53 pm 19:53 Cloudy -6 -21.1 -12 -24.4 75 75 E 10 17 30.69 1039 10 16 0.00 0.00
8:53 pm 20:53 Cloudy -7 -21.7 -12 -24.4 79 79 E 12 19 30.69 1039 10 16 0.00 0.00
9:53 pm 21:53 Cloudy with Light Snow -7 -21.7 -12 -24.4 79 79 E 12 19 30.71 1040 6 10 0.00 0.00
10:53 pm 22:53 Cloudy -8 -22.2 -13 -25 78 78 ENE 12 19 30.72 1040 9 14 0.00 0.00
11:53 pm 23:53 Cloudy -8 -22.2 -13 -25 78 78 ENE 14 22 30.73 1041 10 16 0.00 0.00

Powered by AerisWeather